Weather History for KJMS - February, 2012

Change the Weather History Date:

Sunday, February 12, 2012

  Actual Average Record
Temperature  
Mean Temperature 13 °F 14 °F  
Max Temperature 31 °F 24 °F 55 °F (1898)
Min Temperature -6 °F 4 °F -39 °F (1905)
Degree Days  
Heating Degree Days 52 51  
Month to date heating degree days 529 630  
Since 1 July heating degree days 4884 5992  
Cooling Degree Days 0 0  
Month to date cooling degree days 0 0  
Year to date cooling degree days 0 0  
Moisture  
Dew Point -2 °F    
Average Humidity 50    
Maximum Humidity 78    
Minimum Humidity 21    
Precipitation  
Precipitation 0.00 in 0.02 in 0.13 in (1984)
Month to date precipitation T 0.13  
Year to date precipitation 0.10 0.58  
Sea Level Pressure  
Sea Level Pressure 30.20 in    
Wind  
Wind Speed 8 mph (South)    
Max Wind Speed 18 mph    
Max Gust Speed 24 mph    
Visibility 10 miles    
Events      
T = Trace of Precipitation, MM = Missing Value Source: NWS Daily Summary

Daily Weather History Graph

Daily Weather History Graph

Search for Another Location

Airport or City:

Trip Planner

Search our weather history database for the weather conditions in past years. The results will help you decide how hot, cold, wet, or windy it might be!

Date:

Astronomy

Feb. 12, 2012 Rise Set
Actual Time 7:44 AM CST 5:53 PM CST
Civil Twilight 7:12 AM CST 6:25 PM CST
Nautical Twilight 6:37 AM CST 7:01 PM CST
Astronomical Twilight 6:01 AM CST 7:36 PM CST
Moon No Moon Rise 9:37 AM CST (2/12)
Length of Visible Light 11h 12m
Length of Day
10h 09m
Waning Gibbous, 72% of the Moon is Illuminated
Feb 12
Waning Gibbous
Feb 14
Last Quarter
Feb 21
New
Feb 29
First Quarter
Mar 8
Full

Hourly Weather History & Observations

Time (CST) Temp. Windchill Dew Point Humidity Pressure Visibility Wind Dir Wind Speed Gust Speed Precip Events Conditions
12:56 AM -4.0 °F -12.4 °F -9.9 °F 76% 30.53 in 10.0 mi South 3.5 mph - N/A   Clear
1:56 AM -4.0 °F -12.4 °F -9.9 °F 76% 30.51 in 10.0 mi SSW 3.5 mph - N/A   Clear
2:56 AM -5.1 °F -13.6 °F -11.0 °F 76% 30.48 in 10.0 mi SSW 3.5 mph - N/A   Clear
3:56 AM -2.9 °F -15.0 °F -9.9 °F 72% 30.45 in 10.0 mi SW 5.8 mph - N/A   Clear
4:56 AM -2.9 °F -11.2 °F -9.9 °F 72% 30.43 in 10.0 mi South 3.5 mph - N/A   Clear
5:56 AM -2.9 °F -13.3 °F -9.9 °F 72% 30.41 in 10.0 mi SSW 4.6 mph - N/A   Clear
6:56 AM -5.1 °F -15.8 °F -11.0 °F 76% 30.39 in 10.0 mi SSW 4.6 mph - N/A   Clear
7:56 AM -2.9 °F - -9.9 °F 72% 30.37 in 10.0 mi Calm Calm - N/A   Clear
8:56 AM 3.9 °F -5.3 °F -4.0 °F 70% 30.34 in 10.0 mi SE 4.6 mph - N/A   Clear
9:56 AM 10.9 °F -0.8 °F -0.0 °F 61% 30.31 in 10.0 mi South 8.1 mph - N/A   Clear
10:56 AM 19.0 °F 8.2 °F 1.0 °F 46% 30.27 in 10.0 mi South 9.2 mph - N/A   Clear
11:56 AM 25.0 °F 13.6 °F -0.0 °F 34% 30.24 in 10.0 mi South 12.7 mph - N/A   Clear
12:56 PM 28.0 °F 17.0 °F -2.0 °F 27% 30.19 in 10.0 mi South 13.8 mph 20.7 mph N/A   Clear
1:56 PM 30.0 °F 19.1 °F -6.0 °F 21% 30.15 in 10.0 mi South 15.0 mph - N/A   Clear
2:56 PM 30.9 °F 19.4 °F -0.9 °F 26% 30.12 in 10.0 mi South 17.3 mph 24.2 mph N/A   Clear
3:56 PM 30.0 °F 20.0 °F 5.0 °F 35% 30.09 in 10.0 mi South 12.7 mph - N/A   Clear
4:56 PM 28.9 °F 19.8 °F 8.1 °F 41% 30.05 in 10.0 mi SSE 10.4 mph - N/A   Clear
5:56 PM 25.0 °F 14.8 °F 8.1 °F 49% 30.04 in 10.0 mi SSE 10.4 mph - N/A   Clear
6:56 PM 19.0 °F 11.1 °F 7.0 °F 59% 30.04 in 10.0 mi SSE 5.8 mph - N/A   Clear
7:56 PM 19.0 °F 10.0 °F 7.0 °F 59% 30.01 in 10.0 mi SSE 6.9 mph - N/A   Clear
8:56 PM 17.1 °F 7.6 °F 6.1 °F 62% 29.99 in 10.0 mi SE 6.9 mph - N/A   Clear
9:56 PM 15.1 °F 6.4 °F 5.0 °F 64% 29.95 in 10.0 mi SE 5.8 mph - N/A   Clear
10:56 PM 14.0 °F 5.1 °F 5.0 °F 67% 29.91 in 10.0 mi SSE 5.8 mph - N/A   Clear
11:56 PM 12.0 °F 1.5 °F 3.9 °F 70% 29.89 in 10.0 mi SSE 6.9 mph - N/A   Clear